Location: Aiyekoto
(8.4333°N, 4.3667°E)
Time: 23:18:03
(UTC+00:00)

IDEFIX/ARIANE 42P - Pass Details

Date: 07 June 2020
Orbit: 785 x 803 km, 98.4° (Epoch: 10 July)

Event Time Altitude Azimuth Distance (km) Brightness Sun altitude
Rises 02:56:46 0° 4° (N) 3,289 6.2 -32.9°
Reaches altitude 10° 02:59:08 10° 360° (N) 2,358 5.4 -32.4°
Enters shadow 03:01:27 26° 349° (N) 1,517 4.2 -32.0°
